• In Deutschland
  • Länderverzeichnis
  • Für 7 Tage
  • Wassertemperatur
  • Satellitenkarten
  • Wetterkarte
  • Widgets
  • user-avatar
    Anmelden

    Stündliche Wetter Lemgo

    Heute, 14 August, Dienstag

    Zeit Temperatur Niederschläge Wind Luftdruck Luftfeuchtigkeit
    00:00 +16°C° 0 mm 3 m/S 747 mmHg 91%
    01:00 +16°C° 0 mm 3 m/S 747 mmHg 93%
    02:00 +16°C° 0 mm 3 m/S 747 mmHg 94%
    03:00 +16°C° 0 mm 3 m/S 747 mmHg 94%
    04:00 +16°C° 0 mm 3 m/S 747 mmHg 95%
    05:00 +15°C° 0 mm 4 m/S 747 mmHg 93%
    06:00 +16°C° 0 mm 5 m/S 748 mmHg 91%
    07:00 +17°C° 0 mm 5 m/S 748 mmHg 89%
    08:00 +17°C° 0,2 mm 5 m/S 748 mmHg 88%
    09:00 +19°C° 0,2 mm 5 m/S 748 mmHg 86%
    10:00 +19°C° 0,2 mm 5 m/S 749 mmHg 84%
    11:00 +20°C° 0,2 mm 6 m/S 749 mmHg 78%
    12:00 +21°C° 0,2 mm 6 m/S 749 mmHg 72%
    13:00 +22°C° 0,2 mm 6 m/S 750 mmHg 66%
    14:00 +23°C° 0,1 mm 6 m/S 750 mmHg 63%
    15:00 +23°C° 0,1 mm 7 m/S 750 mmHg 59%
    16:00 +23°C° 0,1 mm 7 m/S 750 mmHg 56%
    17:00 +22°C° 0 mm 6 m/S 751 mmHg 60%
    18:00 +21°C° 0 mm 5 m/S 751 mmHg 64%
    19:00 +20°C° 0 mm 4 m/S 751 mmHg 67%
    20:00 +19°C° 0 mm 3 m/S 752 mmHg 74%
    21:00 +18°C° 0 mm 3 m/S 752 mmHg 80%
    22:00 +16°C° 0 mm 2 m/S 753 mmHg 86%
    23:00 +16°C° 0 mm 2 m/S 753 mmHg 87%

    Morgen, 15 August, Mittwoch

    Zeit Temperatur Niederschläge Wind Luftdruck Luftfeuchtigkeit
    00:00 +15°C° 0 mm 2 m/S 753 mmHg 89%
    01:00 +15°C° 0 mm 1 m/S 753 mmHg 90%
    02:00 +15°C° 0 mm 1 m/S 753 mmHg 92%
    03:00 +15°C° 0 mm 2 m/S 753 mmHg 93%
    04:00 +15°C° 0 mm 2 m/S 753 mmHg 94%
    05:00 +15°C° 0 mm 2 m/S 754 mmHg 91%
    06:00 +16°C° 0 mm 2 m/S 754 mmHg 88%
    07:00 +17°C° 0 mm 2 m/S 754 mmHg 85%
    08:00 +19°C° 0 mm 3 m/S 754 mmHg 77%
    09:00 +21°C° 0 mm 3 m/S 754 mmHg 68%
    10:00 +22°C° 0 mm 3 m/S 755 mmHg 60%
    11:00 +24°C° 0 mm 3 m/S 754 mmHg 58%
    12:00 +24°C° 0 mm 3 m/S 754 mmHg 57%
    13:00 +25°C° 0 mm 3 m/S 754 mmHg 55%
    14:00 +26°C° 0 mm 3 m/S 754 mmHg 54%
    15:00 +26°C° 0 mm 3 m/S 754 mmHg 52%
    16:00 +27°C° 0 mm 3 m/S 754 mmHg 51%
    17:00 +26°C° 0 mm 2 m/S 754 mmHg 55%
    18:00 +25°C° 0 mm 2 m/S 754 mmHg 59%
    19:00 +24°C° 0 mm 2 m/S 754 mmHg 64%
    20:00 +23°C° 0 mm 2 m/S 754 mmHg 68%
    21:00 +21°C° 0 mm 2 m/S 754 mmHg 71%
    22:00 +19°C° 0 mm 2 m/S 754 mmHg 75%
    23:00 +19°C° 0 mm 2 m/S 754 mmHg 78%

    übermorgen, 16 August, Donnerstag

    Zeit Temperatur Niederschläge Wind Luftdruck Luftfeuchtigkeit
    00:00 +19°C° 0 mm 2 m/S 754 mmHg 80%
    01:00 +18°C° 0 mm 2 m/S 754 mmHg 83%
    02:00 +18°C° 0 mm 2 m/S 754 mmHg 85%
    03:00 +17°C° 0 mm 2 m/S 754 mmHg 87%
    04:00 +17°C° 0 mm 2 m/S 754 mmHg 89%
    05:00 +18°C° 0 mm 2 m/S 754 mmHg 86%
    06:00 +19°C° 0 mm 2 m/S 754 mmHg 83%
    07:00 +19°C° 0 mm 2 m/S 753 mmHg 80%
    08:00 +21°C° 0 mm 3 m/S 753 mmHg 72%
    09:00 +24°C° 0 mm 3 m/S 753 mmHg 64%
    10:00 +26°C° 0 mm 3 m/S 753 mmHg 57%
    11:00 +28°C° 0 mm 3 m/S 753 mmHg 52%
    12:00 +29°C° 0 mm 3 m/S 752 mmHg 47%
    13:00 +30°C° 0 mm 3 m/S 752 mmHg 43%
    14:00 +30°C° 0 mm 3 m/S 752 mmHg 41%
    15:00 +30°C° 0 mm 3 m/S 751 mmHg 40%
    16:00 +31°C° 0 mm 3 m/S 751 mmHg 39%
    17:00 +29°C° 0 mm 2 m/S 751 mmHg 43%
    18:00 +28°C° 0 mm 2 m/S 751 mmHg 48%
    19:00 +27°C° 0 mm 1 m/S 751 mmHg 53%
    20:00 +25°C° 0 mm 1 m/S 751 mmHg 56%
    21:00 +24°C° 0 mm 1 m/S 751 mmHg 59%
    22:00 +23°C° 0 mm 1 m/S 751 mmHg 62%
    23:00 +22°C° 0 mm 1 m/S 751 mmHg 66%

    17 August, Freitag

    Zeit Temperatur Niederschläge Wind Luftdruck Luftfeuchtigkeit
    00:00 +20°C° 0 mm 2 m/S 751 mmHg 70%
    01:00 +19°C° 0 mm 2 m/S 751 mmHg 74%
    02:00 +19°C° 0 mm 2 m/S 751 mmHg 79%
    03:00 +19°C° 0 mm 1 m/S 751 mmHg 84%
    04:00 +18°C° 0 mm 1 m/S 751 mmHg 88%
    05:00 +19°C° 0,1 mm 1 m/S 752 mmHg 88%
    06:00 +18°C° 0,1 mm 2 m/S 752 mmHg 87%
    07:00 +18°C° 0,1 mm 2 m/S 752 mmHg 87%
    08:00 +19°C° 0,2 mm 2 m/S 752 mmHg 84%
    09:00 +20°C° 0,2 mm 2 m/S 753 mmHg 81%
    10:00 +21°C° 0,2 mm 3 m/S 753 mmHg 78%
    11:00 +21°C° 0 mm 3 m/S 753 mmHg 75%
    12:00 +22°C° 0 mm 3 m/S 753 mmHg 71%
    13:00 +22°C° 0 mm 3 m/S 753 mmHg 67%
    14:00 +24°C° 0 mm 3 m/S 753 mmHg 61%
    15:00 +25°C° 0 mm 3 m/S 753 mmHg 55%
    16:00 +26°C° 0 mm 3 m/S 754 mmHg 49%
    17:00 +25°C° 0 mm 3 m/S 754 mmHg 52%
    18:00 +24°C° 0 mm 2 m/S 754 mmHg 54%
    19:00 +21°C° 0 mm 2 m/S 754 mmHg 57%
    20:00 +20°C° 0 mm 2 m/S 755 mmHg 62%
    21:00 +18°C° 0 mm 2 m/S 755 mmHg 66%
    22:00 +18°C° 0 mm 1 m/S 755 mmHg 71%
    23:00 +16°C° 0 mm 1 m/S 756 mmHg 74%

    18 August, Samstag

    Zeit Temperatur Niederschläge Wind Luftdruck Luftfeuchtigkeit
    00:00 +15°C° 0 mm 1 m/S 756 mmHg 77%
    01:00 +15°C° 0 mm 1 m/S 756 mmHg 79%
    02:00 +15°C° 0 mm 1 m/S 756 mmHg 80%
    03:00 +14°C° 0 mm 1 m/S 756 mmHg 82%
    04:00 +14°C° 0 mm 1 m/S 756 mmHg 83%
    05:00 +15°C° 0 mm 2 m/S 756 mmHg 79%
    06:00 +15°C° 0 mm 2 m/S 756 mmHg 76%
    07:00 +16°C° 0 mm 2 m/S 757 mmHg 72%
    08:00 +18°C° 0 mm 3 m/S 757 mmHg 65%
    09:00 +20°C° 0 mm 3 m/S 757 mmHg 58%
    10:00 +22°C° 0 mm 4 m/S 757 mmHg 50%
    11:00 +23°C° 0 mm 4 m/S 756 mmHg 47%
    12:00 +25°C° 0 mm 4 m/S 756 mmHg 45%
    13:00 +26°C° 0 mm 5 m/S 756 mmHg 42%
    14:00 +26°C° 0 mm 5 m/S 756 mmHg 43%
    15:00 +26°C° 0 mm 4 m/S 756 mmHg 44%
    16:00 +26°C° 0 mm 4 m/S 755 mmHg 45%
    17:00 +25°C° 0 mm 4 m/S 756 mmHg 51%
    18:00 +24°C° 0 mm 3 m/S 756 mmHg 57%
    19:00 +23°C° 0 mm 2 m/S 756 mmHg 63%
    20:00 +21°C° 0 mm 2 m/S 756 mmHg 67%
    21:00 +20°C° 0 mm 2 m/S 756 mmHg 72%
    22:00 +18°C° 0 mm 2 m/S 756 mmHg 77%
    23:00 +18°C° 0 mm 2 m/S 756 mmHg 80%

    19 August, Sonntag

    Zeit Temperatur Niederschläge Wind Luftdruck Luftfeuchtigkeit
    00:00 +17°C° 0 mm 2 m/S 756 mmHg 83%
    01:00 +17°C° 0 mm 2 m/S 756 mmHg 86%
    02:00 +17°C° 0 mm 2 m/S 756 mmHg 87%
    03:00 +16°C° 0 mm 2 m/S 756 mmHg 89%
    04:00 +16°C° 0 mm 3 m/S 756 mmHg 90%
    05:00 +17°C° 0 mm 3 m/S 756 mmHg 87%
    06:00 +18°C° 0 mm 3 m/S 756 mmHg 84%
    07:00 +18°C° 0 mm 4 m/S 756 mmHg 82%
    08:00 +20°C° 0 mm 4 m/S 756 mmHg 76%
    09:00 +22°C° 0 mm 4 m/S 756 mmHg 70%
    10:00 +25°C° 0 mm 4 m/S 757 mmHg 65%
    11:00 +25°C° 0 mm 4 m/S 756 mmHg 63%
    12:00 +26°C° 0 mm 4 m/S 756 mmHg 61%
    13:00 +27°C° 0 mm 4 m/S 756 mmHg 59%
    14:00 +27°C° 0 mm 4 m/S 756 mmHg 58%
    15:00 +27°C° 0 mm 4 m/S 756 mmHg 57%
    16:00 +28°C° 0 mm 4 m/S 755 mmHg 56%
    17:00 +27°C° 0 mm 3 m/S 755 mmHg 60%
    18:00 +26°C° 0 mm 3 m/S 755 mmHg 64%
    19:00 +25°C° 0 mm 2 m/S 755 mmHg 69%
    20:00 +23°C° 0 mm 2 m/S 756 mmHg 73%
    21:00 +22°C° 0 mm 1 m/S 756 mmHg 78%
    22:00 +21°C° 0 mm 1 m/S 756 mmHg 82%
    23:00 +21°C° 0 mm 1 m/S 756 mmHg 84%
    Mehr zeigen